• Join FlightAware (Why Join?)
  • Login
  • US Flag GB Flag 
14:04 EDT


 

Airport Tracker/Info


-or-


 

Live Flight TrackerFlight Track Log ✈ N343CW ✈ 03-Nov-2013 ✈ KFWA - KMRT

Flight Track Log - Related Links

Times and Time Zones

All times are in EST time to prevent confusion due to time zone crossing. See the N343CW flight status page for this flight to view local times or setup timezone preferences in your user account.

Time Position Orientation Groundspeed Altitude Reporting Facility
EST Latitude Longitude Course Direction KTS MPH feet Rate Location/Type
14:05 40.9375 -85.1003 119° Southeast 194 223 3,100  Level Chicago Center
14:06 40.9144 -85.0403 117° Southeast 190 219 5,200 1,740 Climbing Chicago Center
14:07 40.8947 -84.9878 116° Southeast 170 196 6,800 1,440 Climbing Chicago Center
14:08 40.8753 -84.9317 115° Southeast 166 191 8,200 1,440 Climbing Chicago Center
14:09 40.8111 -84.7758 118° Southeast  Level Estimated
14:09 40.8464 -84.8569 117° Southeast 185 213 9,800  Level Chicago Center
14:10 40.7825 -84.7065 119° Southeast  Level FlightAware Approximate
14:10 40.8197 -84.7892 117° Southeast 201 231 10,900  Level Chicago Center
14:11 40.7875 -84.7108 118° Southeast 234 269 11,000  Climbing Chicago Center
14:12 40.7433 -84.6281 125° Southeast 267 307 11,000  Level Chicago Center
14:13 40.7150 -84.5681 122° Southeast 278 320 11,000  Level Indianapolis Center
14:14 40.6708 -84.4828 124° Southeast 281 323 11,000  Level Indianapolis Center
14:15 40.6286 -84.3972 123° Southeast 281 323 11,000  Level Indianapolis Center
14:16 40.5833 -84.3122 125° Southeast 282 325 11,000  Level Indianapolis Center
14:17 40.5403 -84.2272 124° Southeast 280 322 11,000  Level Indianapolis Center
14:18 40.4939 -84.1375 124° Southeast 279 321 11,000  Level Indianapolis Center
14:18 40.4894 -84.1264 118° Southeast 277 319 11,000  Level Indianapolis Center
14:19 40.4500 -84.0525 125° Southeast 275 316 11,000  Level Indianapolis Center
14:19 40.4467 -84.0419 113° Southeast 278 320 11,000 -1,320 Level Indianapolis Center
14:20 40.4081 -83.9706 125° Southeast 277 319 9,700 -1,500 Descending Indianapolis Center
14:20 40.4036 -83.9589 117° Southeast 278 320 9,500 -1,800 Descending Indianapolis Center
14:21 40.3642 -83.8858 125° Southeast 252 290 7,900 -1,500 Descending Indianapolis Center
14:21 40.3642 -83.8814 90° East 263 303 8,000 -1,200 Climbing Indianapolis Center
14:22 40.3308 -83.8197 125° Southeast 213 245 6,700 -1,260 Descending Indianapolis Center
14:22 40.3286 -83.8144 119° Southeast 244 281 6,700 -720 Level Indianapolis Center
14:23 40.3011 -83.7622 125° Southeast 183 211 6,000 -720 Descending Indianapolis Center
14:23 40.2994 -83.7589 123° Southeast 209 241 6,000 -720 Level Indianapolis Center
14:24 40.2764 -83.7142 124° Southeast 155 178 5,300 -1,020 Descending Indianapolis Center
14:24 40.2694 -83.7006 124° Southeast 179 206 5,000 -660 Descending Indianapolis Center
14:25 40.2447 -83.6519 124° Southeast 175 201 4,500 -540 Descending Indianapolis Center